HFM703 LPPT-LEMG

Flight info

Callsign HFM703
Flight time 0h 49m
Altitude 32000
Route DUZOP DCT MINTA N747 SVL
Aircraft A343/H-SDE2E3FGHIJ4J5M1RWXY/LB1D1

Departure

Time 2026-05-08 08:59
Airport Lisbon Humberto Delgado Airport (LPPT)

Arrival

Time 2026-05-08 09:49
Airport Málaga-Costa del Sol Airport (LEMG)
Time Latitude Longitude Altitude Speed Heading
2026-05-08 08:27 38.77120 -9.13700 355 ft 0 kts 202°
2026-05-08 08:46 38.77138 -9.13690 364 ft 4 kts 202°
2026-05-08 08:46 38.77163 -9.13677 363 ft 4 kts 202°
2026-05-08 08:46 38.77188 -9.13663 362 ft 4 kts 202°
2026-05-08 08:46 38.77213 -9.13650 363 ft 4 kts 202°
2026-05-08 08:47 38.77234 -9.13639 364 ft 2 kts 202°
2026-05-08 08:47 38.77257 -9.13626 363 ft 4 kts 210°
2026-05-08 08:47 38.77277 -9.13605 363 ft 4 kts 244°
2026-05-08 08:47 38.77280 -9.13593 361 ft 1 kts 258°
2026-05-08 08:50 38.77279 -9.13601 362 ft 3 kts 258°
2026-05-08 08:50 38.77273 -9.13639 363 ft 6 kts 258°
2026-05-08 08:51 38.77263 -9.13700 364 ft 8 kts 258°
2026-05-08 08:51 38.77267 -9.13773 364 ft 8 kts 299°
2026-05-08 08:51 38.77309 -9.13795 366 ft 7 kts 358°
2026-05-08 08:51 38.77370 -9.13772 364 ft 11 kts 24°
2026-05-08 08:52 38.77433 -9.13737 365 ft 9 kts 23°
2026-05-08 08:52 38.77491 -9.13705 367 ft 9 kts 22°
2026-05-08 08:52 38.77550 -9.13675 368 ft 9 kts 22°
2026-05-08 08:52 38.77615 -9.13639 369 ft 11 kts 23°
2026-05-08 08:53 38.77692 -9.13598 363 ft 13 kts 22°
2026-05-08 08:53 38.77779 -9.13552 362 ft 14 kts 22°
2026-05-08 08:53 38.77865 -9.13505 365 ft 14 kts 23°
2026-05-08 08:53 38.77952 -9.13459 366 ft 14 kts 22°
2026-05-08 08:54 38.78040 -9.13422 368 ft 13 kts
2026-05-08 08:54 38.78116 -9.13442 370 ft 10 kts 346°
2026-05-08 08:54 38.78175 -9.13459 373 ft 8 kts 348°
2026-05-08 08:54 38.78240 -9.13475 369 ft 12 kts 349°
2026-05-08 08:55 38.78345 -9.13502 373 ft 19 kts 348°
2026-05-08 08:55 38.78479 -9.13539 374 ft 19 kts 348°
2026-05-08 08:55 38.78596 -9.13568 376 ft 16 kts 354°
2026-05-08 08:55 38.78712 -9.13530 371 ft 20 kts 22°
2026-05-08 08:56 38.78856 -9.13454 367 ft 25 kts 23°
2026-05-08 08:56 38.79029 -9.13361 358 ft 28 kts 22°
2026-05-08 08:56 38.79211 -9.13263 356 ft 28 kts 22°
2026-05-08 08:56 38.79382 -9.13171 363 ft 26 kts 23°
2026-05-08 08:57 38.79538 -9.13087 367 ft 22 kts 21°
2026-05-08 08:57 38.79677 -9.13015 368 ft 21 kts 22°
2026-05-08 08:57 38.79767 -9.12940 369 ft 15 kts 67°
2026-05-08 08:57 38.79746 -9.12822 365 ft 12 kts 116°
2026-05-08 08:58 38.79682 -9.12766 360 ft 10 kts 182°
2026-05-08 08:58 38.79615 -9.12797 363 ft 11 kts 202°
2026-05-08 08:58 38.79402 -9.12910 363 ft 60 kts 203°
2026-05-08 08:58 38.78858 -9.13200 368 ft 109 kts 202°
2026-05-08 08:59 38.78022 -9.13650 374 ft 150 kts 203°
2026-05-08 08:59 38.76969 -9.14228 591 ft 170 kts 201°
2026-05-08 08:59 38.75915 -9.14802 1196 ft 168 kts 200°
2026-05-08 08:59 38.74798 -9.15378 1865 ft 171 kts 200°
2026-05-08 09:00 38.73659 -9.15967 2400 ft 181 kts 201°
2026-05-08 09:00 38.72483 -9.16600 2955 ft 188 kts 201°
2026-05-08 09:00 38.71263 -9.17252 3579 ft 192 kts 202°
2026-05-08 09:00 38.69976 -9.17941 4007 ft 214 kts 202°
2026-05-08 09:01 38.68522 -9.18717 4397 ft 236 kts 202°
2026-05-08 09:01 38.66969 -9.19546 5084 ft 246 kts 203°
2026-05-08 09:01 38.65375 -9.20397 5910 ft 249 kts 203°
2026-05-08 09:01 38.63740 -9.21196 6707 ft 255 kts 198°
2026-05-08 09:02 38.62050 -9.21831 7481 ft 258 kts 196°
2026-05-08 09:02 38.60299 -9.22443 8240 ft 263 kts 196°
2026-05-08 09:02 38.58523 -9.23058 9020 ft 266 kts 196°
2026-05-08 09:02 38.56670 -9.23412 9764 ft 273 kts 181°
2026-05-08 09:03 38.54778 -9.22903 10300 ft 288 kts 159°
2026-05-08 09:03 38.52939 -9.21680 10588 ft 308 kts 152°
2026-05-08 09:03 38.51048 -9.20238 10874 ft 325 kts 152°
2026-05-08 09:03 38.49084 -9.18740 11143 ft 341 kts 152°
2026-05-08 09:04 38.46990 -9.17162 11424 ft 356 kts 152°
2026-05-08 09:04 38.44821 -9.15539 11877 ft 364 kts 153°
2026-05-08 09:04 38.42614 -9.13896 12471 ft 370 kts 153°
2026-05-08 09:04 38.40396 -9.12249 13056 ft 375 kts 153°
2026-05-08 09:05 38.38118 -9.10562 13649 ft 380 kts 153°
2026-05-08 09:05 38.35802 -9.08850 14212 ft 385 kts 153°
2026-05-08 09:05 38.33498 -9.07148 14773 ft 388 kts 153°
2026-05-08 09:05 38.31151 -9.05417 15365 ft 392 kts 153°
2026-05-08 09:06 38.28778 -9.03668 16002 ft 393 kts 154°
2026-05-08 09:06 38.26404 -9.01917 16650 ft 395 kts 154°
2026-05-08 09:06 38.24037 -9.00176 17239 ft 398 kts 154°
2026-05-08 09:06 38.21627 -8.98406 17833 ft 401 kts 154°
2026-05-08 09:07 38.19192 -8.96618 18397 ft 404 kts 154°
2026-05-08 09:07 38.16741 -8.94820 18896 ft 408 kts 154°
2026-05-08 09:07 38.14299 -8.93030 19382 ft 411 kts 154°
2026-05-08 09:07 38.11806 -8.91203 19865 ft 414 kts 155°
2026-05-08 09:08 38.09302 -8.89370 20293 ft 417 kts 155°
2026-05-08 09:08 38.06746 -8.87622 20637 ft 417 kts 159°
2026-05-08 09:08 38.04102 -8.86074 20991 ft 418 kts 161°
2026-05-08 09:08 38.01438 -8.84567 21351 ft 420 kts 161°
2026-05-08 09:09 37.98753 -8.83052 21719 ft 423 kts 161°
2026-05-08 09:09 37.96091 -8.81550 22072 ft 425 kts 161°
2026-05-08 09:09 37.93370 -8.80014 22432 ft 427 kts 162°
2026-05-08 09:09 37.90650 -8.78479 22803 ft 430 kts 162°
2026-05-08 09:10 37.87905 -8.76931 23153 ft 432 kts 162°
2026-05-08 09:10 37.85185 -8.75397 23485 ft 434 kts 162°
2026-05-08 09:10 37.82415 -8.73837 23791 ft 437 kts 162°
2026-05-08 09:10 37.79627 -8.72267 24091 ft 438 kts 163°
2026-05-08 09:11 37.76836 -8.70697 24377 ft 441 kts 163°
2026-05-08 09:11 37.74969 -8.69649 24549 ft 442 kts 163°
2026-05-08 09:11 37.72156 -8.68025 24839 ft 447 kts 160°
2026-05-08 09:11 37.69457 -8.66006 25132 ft 457 kts 151°
2026-05-08 09:12 37.67011 -8.63368 25436 ft 468 kts 140°
2026-05-08 09:12 37.64942 -8.60136 25732 ft 480 kts 129°
2026-05-08 09:12 37.63207 -8.56497 25991 ft 486 kts 126°
2026-05-08 09:12 37.61586 -8.52735 26239 ft 490 kts 124°
2026-05-08 09:13 37.60031 -8.48953 26519 ft 492 kts 123°
2026-05-08 09:13 37.58466 -8.45102 26815 ft 494 kts 123°
2026-05-08 09:13 37.56885 -8.41233 27099 ft 496 kts 123°
2026-05-08 09:13 37.55287 -8.37363 27327 ft 497 kts 124°
2026-05-08 09:14 37.53688 -8.33530 27584 ft 499 kts 124°
2026-05-08 09:14 37.52058 -8.29655 27787 ft 502 kts 124°
2026-05-08 09:14 37.50411 -8.25760 28045 ft 504 kts 124°
2026-05-08 09:14 37.48761 -8.21869 28315 ft 505 kts 124°
2026-05-08 09:15 37.47099 -8.17958 28559 ft 507 kts 124°
2026-05-08 09:15 37.45433 -8.14038 28806 ft 509 kts 124°
2026-05-08 09:15 37.43758 -8.10103 29040 ft 511 kts 124°
2026-05-08 09:15 37.42076 -8.06156 29238 ft 513 kts 125°
2026-05-08 09:16 37.40388 -8.02199 29495 ft 515 kts 125°
2026-05-08 09:16 37.38711 -7.98270 29749 ft 516 kts 125°
2026-05-08 09:16 37.36993 -7.94245 30026 ft 516 kts 125°
2026-05-08 09:16 37.35316 -7.90320 30326 ft 515 kts 125°
2026-05-08 09:17 37.33623 -7.86359 30653 ft 513 kts 125°
2026-05-08 09:17 37.31935 -7.82417 30996 ft 512 kts 125°
2026-05-08 09:17 37.30248 -7.78485 31277 ft 511 kts 125°
2026-05-08 09:17 37.28561 -7.74563 31596 ft 511 kts 126°
2026-05-08 09:18 37.26870 -7.70636 31887 ft 511 kts 126°
2026-05-08 09:18 37.25180 -7.66717 31963 ft 510 kts 126°
2026-05-08 09:18 37.21812 -7.58910 31939 ft 508 kts 126°
2026-05-08 09:19 37.18447 -7.51146 31973 ft 511 kts 126°
2026-05-08 09:19 37.15292 -7.43114 31961 ft 521 kts 116°
2026-05-08 09:20 37.14367 -7.38682 31964 ft 531 kts 104°
2026-05-08 09:20 37.14114 -7.34023 31971 ft 539 kts 91°
2026-05-08 09:20 37.15342 -7.24692 31970 ft 545 kts 79°
2026-05-08 09:21 37.17144 -7.15431 31967 ft 547 kts 77°
2026-05-08 09:23 37.23393 -6.82957 31949 ft 547 kts 79°
2026-05-08 09:23 37.25112 -6.73693 31965 ft 548 kts 79°
2026-05-08 09:24 37.26840 -6.64355 31967 ft 549 kts 79°
2026-05-08 09:24 37.28561 -6.55022 31789 ft 548 kts 79°
2026-05-08 09:24 37.29421 -6.50347 31529 ft 551 kts 79°
2026-05-08 09:25 37.30271 -6.45719 31281 ft 551 kts 79°
2026-05-08 09:25 37.31128 -6.41027 31039 ft 550 kts 79°
2026-05-08 09:25 37.31979 -6.36355 30719 ft 549 kts 79°
2026-05-08 09:25 37.32831 -6.31671 30178 ft 548 kts 79°
2026-05-08 09:26 37.33680 -6.26992 29490 ft 549 kts 78°
2026-05-08 09:26 37.34521 -6.22345 28805 ft 548 kts 78°
2026-05-08 09:26 37.35365 -6.17675 28130 ft 546 kts 78°
2026-05-08 09:26 37.36204 -6.13021 27459 ft 544 kts 78°
2026-05-08 09:27 37.37039 -6.08382 26782 ft 542 kts 78°
2026-05-08 09:27 37.37866 -6.03772 26143 ft 540 kts 78°
2026-05-08 09:27 37.38687 -5.99184 25580 ft 536 kts 78°
2026-05-08 09:27 37.39502 -5.94619 25028 ft 530 kts 78°
2026-05-08 09:28 37.40286 -5.90228 24487 ft 512 kts 78°
2026-05-08 09:28 37.41056 -5.85895 23958 ft 508 kts 78°
2026-05-08 09:28 37.41825 -5.81557 23413 ft 509 kts 78°
2026-05-08 09:28 37.42656 -5.77234 22779 ft 506 kts 75°
2026-05-08 09:29 37.43226 -5.72879 22156 ft 500 kts 91°
2026-05-08 09:29 37.42870 -5.68591 21542 ft 489 kts 108°
2026-05-08 09:29 37.41665 -5.64685 20956 ft 469 kts 124°
2026-05-08 09:29 37.40054 -5.61186 20386 ft 459 kts 125°
2026-05-08 09:30 37.38570 -5.57626 19810 ft 460 kts 120°
2026-05-08 09:30 37.37281 -5.53994 19269 ft 459 kts 117°
2026-05-08 09:30 37.36100 -5.50252 18719 ft 458 kts 115°
2026-05-08 09:30 37.35005 -5.46517 18144 ft 451 kts 114°
2026-05-08 09:31 37.33972 -5.42840 17544 ft 440 kts 113°
2026-05-08 09:31 37.32994 -5.39286 16956 ft 432 kts 112°
2026-05-08 09:31 37.32027 -5.35736 16364 ft 428 kts 112°
2026-05-08 09:31 37.31067 -5.32195 15769 ft 428 kts 112°
2026-05-08 09:32 37.30111 -5.28657 15204 ft 426 kts 112°
2026-05-08 09:32 37.29160 -5.25132 14646 ft 424 kts 112°
2026-05-08 09:32 37.28215 -5.21626 14116 ft 422 kts 112°
2026-05-08 09:32 37.27279 -5.18153 13612 ft 418 kts 112°
2026-05-08 09:33 37.26361 -5.14750 13063 ft 415 kts 112°
2026-05-08 09:33 37.25440 -5.11341 12539 ft 410 kts 112°
2026-05-08 09:33 37.24544 -5.08019 12135 ft 388 kts 112°
2026-05-08 09:33 37.23711 -5.04921 12000 ft 359 kts 112°
2026-05-08 09:34 37.22938 -5.02055 11884 ft 336 kts 112°
2026-05-08 09:34 37.22208 -4.99361 11725 ft 315 kts 113°
2026-05-08 09:34 37.21521 -4.96830 11595 ft 298 kts 114°
2026-05-08 09:34 37.20877 -4.94461 11454 ft 283 kts 114°
2026-05-08 09:35 37.20257 -4.92180 11283 ft 270 kts 114°
2026-05-08 09:35 37.19872 -4.89880 11048 ft 270 kts 97°
2026-05-08 09:35 37.19830 -4.87527 10883 ft 269 kts 93°
2026-05-08 09:35 37.19850 -4.85181 10687 ft 267 kts 93°
2026-05-08 09:36 37.19585 -4.82916 10432 ft 259 kts 117°
2026-05-08 09:36 37.18596 -4.81172 10191 ft 244 kts 147°
2026-05-08 09:36 37.17118 -4.80287 9965 ft 232 kts 175°
2026-05-08 09:36 37.15522 -4.80121 9719 ft 229 kts 184°
2026-05-08 09:37 37.13927 -4.80117 9471 ft 228 kts 184°
2026-05-08 09:37 37.12342 -4.80125 9217 ft 228 kts 184°
2026-05-08 09:37 37.10751 -4.80124 8981 ft 228 kts 184°
2026-05-08 09:37 37.09171 -4.80114 8757 ft 227 kts 184°
2026-05-08 09:38 37.07598 -4.80099 8548 ft 225 kts 183°
2026-05-08 09:38 37.06056 -4.80085 8328 ft 224 kts 183°
2026-05-08 09:38 37.04512 -4.80070 8171 ft 221 kts 183°
2026-05-08 09:38 37.02981 -4.80053 8080 ft 216 kts 183°
2026-05-08 09:39 37.01502 -4.80034 8011 ft 207 kts 183°
2026-05-08 09:39 37.00101 -4.80014 7877 ft 198 kts 183°
2026-05-08 09:39 36.98734 -4.80003 7571 ft 196 kts 183°
2026-05-08 09:39 36.97372 -4.79989 7282 ft 194 kts 183°
2026-05-08 09:40 36.96029 -4.79977 6975 ft 192 kts 182°
2026-05-08 09:40 36.94725 -4.79962 6721 ft 188 kts 182°
2026-05-08 09:40 36.93428 -4.79894 6473 ft 185 kts 176°
2026-05-08 09:40 36.92184 -4.79511 6217 ft 183 kts 166°
2026-05-08 09:41 36.90967 -4.78994 5961 ft 185 kts 164°
2026-05-08 09:41 36.89763 -4.78468 5692 ft 181 kts 164°
2026-05-08 09:41 36.88577 -4.77972 5451 ft 184 kts 163°
2026-05-08 09:41 36.87347 -4.77485 5303 ft 185 kts 164°
2026-05-08 09:42 36.86118 -4.77004 5171 ft 185 kts 164°
2026-05-08 09:42 36.84899 -4.76538 4988 ft 184 kts 164°
2026-05-08 09:42 36.83670 -4.76081 4747 ft 183 kts 164°
2026-05-08 09:42 36.82455 -4.75640 4499 ft 181 kts 164°
2026-05-08 09:43 36.81244 -4.75208 4331 ft 181 kts 164°
2026-05-08 09:43 36.80029 -4.74780 4188 ft 181 kts 164°
2026-05-08 09:43 36.78979 -4.73980 4064 ft 182 kts 132°
2026-05-08 09:43 36.78283 -4.72662 3913 ft 182 kts 120°
2026-05-08 09:44 36.77698 -4.71264 3678 ft 181 kts 120°
2026-05-08 09:44 36.77116 -4.69874 3417 ft 180 kts 120°
2026-05-08 09:44 36.76541 -4.68507 3185 ft 176 kts 120°
2026-05-08 09:44 36.75986 -4.67185 2932 ft 171 kts 119°
2026-05-08 09:45 36.75443 -4.65888 2733 ft 166 kts 119°
2026-05-08 09:45 36.74912 -4.64619 2510 ft 166 kts 119°
2026-05-08 09:45 36.74363 -4.63316 2307 ft 172 kts 118°
2026-05-08 09:45 36.73808 -4.61973 2050 ft 177 kts 118°
2026-05-08 09:46 36.73249 -4.60618 1880 ft 173 kts 118°
2026-05-08 09:46 36.72706 -4.59308 1636 ft 166 kts 117°
2026-05-08 09:46 36.72205 -4.58085 1346 ft 155 kts 118°
2026-05-08 09:46 36.71712 -4.56955 1140 ft 145 kts 119°
2026-05-08 09:47 36.71218 -4.55835 982 ft 149 kts 118°
2026-05-08 09:47 36.70742 -4.54696 771 ft 145 kts 116°
2026-05-08 09:47 36.70284 -4.53587 577 ft 141 kts 117°
2026-05-08 09:47 36.69831 -4.52525 397 ft 140 kts 117°
2026-05-08 09:48 36.69386 -4.51445 211 ft 139 kts 116°
2026-05-08 09:48 36.68939 -4.50392 54 ft 130 kts 118°
2026-05-08 09:48 36.68605 -4.49593 45 ft 79 kts 117°
2026-05-08 09:48 36.68399 -4.49102 50 ft 55 kts 118°
2026-05-08 09:49 36.68270 -4.48798 47 ft 27 kts 118°
2026-05-08 09:49 36.68180 -4.48631 44 ft 18 kts 132°
2026-05-08 09:49 36.68088 -4.48534 43 ft 17 kts 144°
2026-05-08 09:49 36.68012 -4.48479 42 ft 7 kts 156°
2026-05-08 09:50 36.67973 -4.48470 44 ft 5 kts 178°
2026-05-08 09:50 36.67945 -4.48475 44 ft 4 kts 191°
2026-05-08 09:50 36.67904 -4.48493 44 ft 7 kts 204°
2026-05-08 09:50 36.67860 -4.48522 45 ft 6 kts 213°
2026-05-08 09:51 36.67830 -4.48555 46 ft 6 kts 223°
2026-05-08 09:51 36.67796 -4.48587 46 ft 6 kts 211°
2026-05-08 09:51 36.67762 -4.48610 46 ft 4 kts 207°
2026-05-08 09:51 36.67748 -4.48619 46 ft 0 kts 207°